Regional Weather Roundup
Issued by NWS

Home | Current Version | Previous Version | Text Only | Print | Product List | Glossary On
Versions: 1 2 3 4 5 6 7 8 9 10 11 12 13 14 15 16 17 18 19 20 21 22 23 24 25 26 27 28 29 30 31 32 33 34 35 36 37 38 39 40 41 42 43 44 45 46 47 48 49 50
000
ASUS45 KCYS 100110
RWRWY

WYOMING REGIONAL WEATHER ROUNDUP
NATIONAL WEATHER SERVICE CHEYENNE WY
600 PM MST FRI DEC 09 2016

NOTE:  "FAIR" INDICATES FEW OR NO CLOUDS BELOW 12,000 FEET
WITH NO SIGNIFICANT WEATHER AND/OR OBSTRUCTIONS TO VISIBILITY.

WYZ001-100200-
YELLOWSTONE NATIONAL PARK

CITY           SKY/WX    TMP DP  RH WIND       PRES   REMARKS
LK YELLOWSTONE   N/A     24  22  91 VRB3      29.96F
W YELLOWSTONE  NOT AVBL

$$
WYZ002>013-054>058-071-098>099-100200-
NORTHERN WYOMING

CITY           SKY/WX    TMP DP  RH WIND       PRES   REMARKS
JACKSON        LGT SNOW  28  28 100 SW9       29.99F WCI  20
CODY           CLOUDY     9   2  73 CALM      30.03F
GREYBULL       CLOUDY    13   2  61 S3        30.09F
WORLAND        FAIR      11   4  73 NE5       30.07F WCI   3
SHERIDAN       CLOUDY    11   2  67 E8        30.13F WCI  -1
BUFFALO        CLOUDY     6  -1  73 S8        30.06F WCI  -7
GILLETTE       CLOUDY     7   1  76 E3        30.13F
HULETT         FAIR       1  -4  78 CALM      30.16F
NEWCASTLE      FAIR       9   0  66 SE8       30.19R WCI  -4

$$
WYZ014>020-022>026-101>103-100200-
CENTRAL WYOMING

CITY           SKY/WX    TMP DP  RH WIND       PRES   REMARKS
BIG PINEY      CLOUDY    16  13  88 N5        30.06F WCI   9
PINEDALE       FLURRIES  23  21  93 MISG      30.06F
DUBOIS         CLOUDY    30  23  74 NW6       29.92F WCI  24
LANDER         FAIR      17   6  62 SW5       29.98F WCI  10
RIVERTON       FAIR      13   5  70 CALM      30.00F
CASPER         MOCLDY     7   1  76 CALM      30.03F
DOUGLAS        CLOUDY    11   4  73 SE7       30.08F WCI   0

$$
WYZ021-027>030-104>119-100200-
SOUTHERN WYOMING

CITY           SKY/WX    TMP DP  RH WIND       PRES   REMARKS
EVANSTON       CLOUDY    35  26  69 SW13      30.10F WCI  26
KEMMERER         N/A     32  32 100 W9        30.07F WCI  24
FORT BRIDGER   CLOUDY    36  30  78 SW9       30.11F WCI  29
ROCK SPRINGS   MOCLDY    35  27  72 W25       30.08F WCI  23
DIXON          CLOUDY    36  24  63 SW7       30.16F WCI  30
RAWLINS        FLURRIES  35  24  64 SW14G30   30.07F WCI  26
SARATOGA       CLOUDY    34  27  75 S8        30.12S WCI  27
LARAMIE        CLOUDY    34  23  64 SW22      30.07F WCI  22
CHEYENNE       MOCLDY    40  24  53 W15       30.07F WCI  32
TORRINGTON     FAIR      18   9  68 E12       30.16S WCI   5
PINE BLUFFS    FAIR      21  16  79 CALM      30.13S

$$



USA.gov is the U.S. government's official web portal to all federal, state and local government web resources and services.